GEFSSGP_prec_meanprecacc_162.txt.gz
Total_Precipitation_Accumulation
0.02 0.05 0.23 0.42 0.75 1.41 1.44 0.92 0.42 0.24 0.23 0.29 0.36 0.41 0.42 0.37 0.48 0.81 0.42 0.19 0.08 0.04 0.04 0.09 0.12 0.11 0.13 0.16 0.16 0.18 0.19 0.17 0.14 0.13 0.13 0.15 0.13 0.12 0.13 0.17 0.17 0.16 0.18 0.17 0.19 0.20 0.19 0.21 0.20
0.02 0.09 0.27 0.43 1.04 1.61 1.22 1.06 0.36 0.20 0.19 0.30 0.36 0.39 0.40 0.40 0.25 0.27 0.29 0.23 0.13 0.08 0.04 0.04 0.09 0.12 0.11 0.14 0.17 0.18 0.17 0.16 0.15 0.17 0.17 0.17 0.12 0.12 0.13 0.15 0.16 0.16 0.16 0.16 0.15 0.15 0.14 0.15 0.16
0.04 0.14 0.28 0.43 0.84 1.02 0.67 0.54 0.23 0.17 0.21 0.28 0.35 0.36 0.38 0.46 0.29 0.26 0.27 0.20 0.15 0.08 0.05 0.06 0.09 0.10 0.11 0.14 0.16 0.18 0.17 0.16 0.16 0.21 0.22 0.21 0.15 0.16 0.16 0.17 0.15 0.15 0.15 0.13 0.12 0.12 0.12 0.13 0.16
0.05 0.13 0.23 0.37 0.43 0.49 0.41 0.28 0.17 0.15 0.20 0.27 0.31 0.32 0.42 0.38 0.25 0.32 0.35 0.34 0.18 0.11 0.07 0.10 0.11 0.11 0.11 0.13 0.15 0.20 0.23 0.20 0.20 0.21 0.22 0.23 0.20 0.23 0.22 0.16 0.15 0.16 0.16 0.14 0.12 0.12 0.13 0.14 0.17
0.07 0.15 0.23 0.27 0.25 0.34 0.35 0.25 0.19 0.13 0.14 0.23 0.35 0.49 0.53 0.39 0.27 0.41 0.42 0.43 0.26 0.15 0.09 0.11 0.14 0.13 0.12 0.12 0.14 0.17 0.21 0.22 0.24 0.24 0.20 0.20 0.18 0.19 0.21 0.16 0.14 0.14 0.14 0.12 0.13 0.14 0.19 0.20 0.22
0.08 0.14 0.16 0.16 0.17 0.26 0.25 0.18 0.17 0.16 0.20 0.24 0.37 0.59 0.66 0.52 0.37 0.39 0.48 0.40 0.35 0.26 0.17 0.17 0.20 0.18 0.16 0.15 0.16 0.17 0.17 0.18 0.18 0.19 0.18 0.16 0.16 0.20 0.24 0.22 0.16 0.14 0.12 0.14 0.16 0.17 0.21 0.24 0.25
0.05 0.06 0.07 0.09 0.12 0.18 0.20 0.15 0.15 0.13 0.16 0.24 0.32 0.64 0.83 0.87 0.63 0.50 0.59 0.61 0.61 0.43 0.27 0.25 0.24 0.21 0.23 0.27 0.23 0.22 0.21 0.21 0.21 0.22 0.21 0.21 0.20 0.21 0.23 0.27 0.24 0.20 0.20 0.21 0.20 0.19 0.21 0.24 0.26
0.02 0.02 0.02 0.05 0.06 0.10 0.13 0.14 0.12 0.14 0.15 0.20 0.30 0.50 0.83 0.79 0.54 0.59 0.88 0.92 1.02 0.82 0.56 0.41 0.32 0.31 0.27 0.25 0.28 0.28 0.28 0.27 0.24 0.25 0.24 0.26 0.26 0.26 0.28 0.28 0.31 0.31 0.35 0.36 0.30 0.28 0.28 0.29 0.30
0.01 0.02 0.02 0.02 0.02 0.05 0.07 0.09 0.10 0.10 0.14 0.25 0.37 0.53 0.69 0.60 0.54 0.64 1.15 1.19 1.16 0.99 0.78 0.63 0.49 0.40 0.35 0.29 0.31 0.38 0.39 0.38 0.35 0.39 0.36 0.38 0.44 0.48 0.53 0.49 0.57 0.57 0.57 0.58 0.54 0.53 0.55 0.52 0.43
0.01 0.00 0.01 0.00 0.01 0.02 0.04 0.08 0.10 0.11 0.22 0.56 0.77 0.81 0.80 0.70 0.76 0.94 1.25 1.11 1.14 1.16 0.98 0.84 0.67 0.52 0.45 0.44 0.55 0.67 0.59 0.59 0.59 0.71 0.73 0.80 0.96 0.93 0.66 0.71 0.96 1.08 1.15 1.11 1.06 1.05 0.89 0.77 0.71
0.00 0.00 0.00 0.00 0.01 0.01 0.02 0.06 0.10 0.13 0.42 0.85 1.05 0.96 0.92 0.99 1.05 1.27 1.56 1.58 1.46 1.54 1.32 1.10 0.93 0.76 0.67 0.79 0.73 0.79 0.90 0.98 0.96 1.00 1.04 1.13 1.12 0.95 0.81 0.92 1.18 1.43 1.50 1.39 1.60 1.63 1.25 1.31 1.52
0.00 0.00 0.00 0.00 0.00 0.01 0.02 0.03 0.09 0.21 0.42 0.56 0.73 0.94 1.07 1.21 1.46 1.66 1.69 1.85 1.79 1.75 1.64 1.58 1.34 1.16 1.20 1.15 0.90 0.84 0.88 0.97 1.08 1.29 1.29 1.35 1.48 1.40 1.34 1.37 1.42 1.58 1.76 1.95 1.98 2.11 1.96 1.90 1.82
0.00 0.00 0.00 0.00 0.01 0.02 0.02 0.05 0.15 0.30 0.39 0.48 0.78 1.13 1.39 1.42 1.71 1.96 2.01 2.26 2.07 1.94 1.88 1.86 1.80 1.63 1.68 1.45 1.26 1.11 1.19 1.21 1.26 1.37 1.48 1.47 1.67 1.80 1.78 1.72 1.68 1.64 1.76 1.91 2.05 2.12 2.43 2.55 2.22
0.00 0.00 0.00 0.01 0.01 0.03 0.06 0.10 0.21 0.35 0.51 0.65 0.86 1.17 1.47 1.71 1.91 1.99 2.31 2.53 2.51 2.34 2.34 2.16 2.09 2.08 2.04 1.92 1.86 1.76 1.56 1.55 1.53 1.50 1.50 1.54 1.73 1.92 2.01 1.91 1.86 1.75 1.73 1.89 2.06 2.23 2.67 2.67 2.49
0.00 0.01 0.03 0.03 0.04 0.06 0.09 0.24 0.36 0.48 0.59 0.71 0.90 1.07 1.39 1.88 2.11 2.13 2.36 2.51 2.48 2.77 2.77 2.75 2.69 2.81 2.72 2.52 2.38 2.18 1.97 1.83 1.79 1.83 1.84 1.75 1.78 1.90 1.90 1.74 1.68 1.72 1.85 2.00 2.03 2.22 2.50 2.22 2.20
0.01 0.08 0.10 0.11 0.09 0.09 0.14 0.41 0.47 0.52 0.60 0.79 0.98 1.13 1.40 1.73 2.04 2.16 2.43 2.61 2.70 3.01 3.12 3.25 3.29 3.24 3.07 2.99 2.90 2.65 2.41 2.19 2.03 1.96 2.01 1.86 1.79 1.79 1.92 1.74 1.61 1.92 2.03 2.10 2.26 2.37 2.37 2.28 2.24
0.04 0.06 0.08 0.11 0.09 0.08 0.13 0.35 0.44 0.57 0.79 1.00 1.17 1.26 1.36 1.64 1.93 2.20 2.55 2.90 3.19 3.46 3.66 3.79 3.81 3.65 3.38 3.34 3.26 3.06 2.85 2.49 2.19 2.03 1.97 1.83 1.79 1.88 2.11 2.02 2.07 2.25 2.30 2.28 2.19 2.42 2.40 2.28 2.24
0.03 0.05 0.07 0.10 0.09 0.09 0.19 0.40 0.46 0.60 0.86 0.97 1.24 1.36 1.45 1.56 1.98 2.39 2.61 3.02 3.48 3.92 4.27 4.09 3.99 4.11 3.95 3.74 3.52 3.18 2.73 2.35 2.22 2.14 1.96 1.89 1.91 2.01 2.29 2.11 2.06 2.21 2.32 2.29 2.25 2.21 2.23 2.04 2.02
0.03 0.06 0.09 0.12 0.10 0.12 0.23 0.49 0.68 0.79 1.01 1.05 1.10 1.25 1.36 1.48 1.79 2.17 2.46 3.02 3.60 3.91 4.30 4.46 4.43 4.27 4.00 3.56 3.19 2.90 2.66 2.50 2.26 2.11 2.01 1.92 1.86 1.94 2.20 2.06 2.11 2.12 2.09 2.10 2.15 2.15 1.98 1.67 1.86
0.04 0.07 0.09 0.14 0.13 0.17 0.32 0.54 0.79 0.80 0.89 0.94 0.87 0.95 1.13 1.47 1.71 2.19 2.43 2.64 3.12 3.61 4.04 4.31 4.45 4.28 3.88 3.41 3.09 2.89 2.82 2.49 2.19 2.14 2.10 1.96 2.00 1.99 2.01 2.05 2.00 2.01 2.04 1.96 1.92 1.98 1.81 1.51 1.64
0.06 0.07 0.09 0.10 0.12 0.23 0.34 0.72 0.97 0.86 0.82 0.87 0.87 0.94 1.10 1.56 2.01 2.22 2.34 2.47 2.72 3.14 3.43 3.52 3.65 3.59 3.37 3.30 3.17 2.99 2.92 2.57 2.39 2.38 2.33 2.18 2.17 2.12 2.09 2.02 1.89 1.74 1.66 1.61 1.65 1.72 1.71 1.52 1.47
0.08 0.06 0.05 0.06 0.14 0.33 0.37 0.82 1.24 1.07 0.91 0.95 1.02 0.99 1.28 1.61 1.62 1.70 1.95 2.24 2.46 2.70 3.01 3.23 3.25 3.17 3.02 3.03 2.92 2.72 2.47 2.34 2.43 2.62 2.53 2.27 2.06 1.90 1.70 1.56 1.56 1.51 1.47 1.41 1.31 1.37 1.42 1.34 1.26
0.06 0.05 0.06 0.09 0.14 0.30 0.38 0.60 1.08 1.11 1.15 1.03 1.01 1.12 1.35 1.37 1.32 1.35 1.55 1.87 1.99 2.25 2.51 2.79 3.02 3.08 2.95 2.89 2.75 2.67 2.49 2.39 2.37 2.30 2.19 1.98 1.76 1.53 1.27 1.19 1.22 1.21 1.18 1.15 1.10 1.09 1.07 1.06 1.07
0.05 0.06 0.12 0.18 0.30 0.63 0.49 0.51 0.93 1.07 0.97 0.86 0.92 0.97 1.12 1.11 1.14 1.26 1.40 1.65 1.74 1.84 1.94 2.07 2.32 2.55 2.62 2.58 2.49 2.40 2.26 2.15 2.01 1.79 1.62 1.48 1.36 1.15 0.93 0.84 0.90 0.95 1.01 0.98 0.96 0.97 0.94 0.98 1.09
0.06 0.09 0.39 0.74 0.97 1.02 0.55 0.59 1.03 0.85 0.65 0.66 0.82 0.85 0.81 0.81 0.86 1.06 1.17 1.25 1.35 1.43 1.48 1.59 1.82 2.10 2.17 2.09 2.06 2.04 1.92 1.83 1.70 1.57 1.41 1.27 1.12 0.93 0.82 0.76 0.79 0.84 0.90 0.85 0.84 0.84 0.91 1.03 1.12
0.08 0.09 0.34 0.61 0.74 0.81 0.66 1.00 1.43 0.92 0.68 0.72 0.74 0.73 0.70 0.68 0.64 0.75 0.95 1.10 1.12 1.14 1.22 1.34 1.58 1.75 1.78 1.67 1.71 1.76 1.68 1.64 1.52 1.48 1.26 1.08 0.97 0.91 0.92 0.83 0.78 0.75 0.75 0.72 0.78 0.77 0.82 0.94 1.04
0.09 0.08 0.14 0.28 0.36 0.58 0.80 1.09 1.14 0.68 0.60 0.70 0.71 0.68 0.70 0.69 0.59 0.59 0.67 0.82 0.88 0.91 0.97 1.05 1.31 1.50 1.57 1.50 1.54 1.57 1.57 1.48 1.32 1.22 1.10 0.94 0.92 0.91 0.99 0.92 0.85 0.80 0.79 0.81 0.88 0.91 0.99 1.14 1.20
0.10 0.11 0.16 0.22 0.34 0.55 0.75 1.03 1.17 0.79 0.63 0.47 0.43 0.46 0.41 0.40 0.38 0.36 0.40 0.46 0.56 0.69 0.83 0.92 1.01 1.17 1.26 1.25 1.26 1.28 1.37 1.31 1.19 1.13 1.01 0.86 0.78 0.80 0.93 0.97 0.91 0.85 0.81 0.84 0.92 1.07 1.24 1.36 1.38
0.13 0.11 0.13 0.17 0.20 0.37 0.72 0.92 0.69 0.55 0.49 0.45 0.40 0.44 0.37 0.30 0.28 0.30 0.34 0.42 0.50 0.57 0.69 0.81 0.87 0.97 1.05 1.06 1.10 1.10 1.10 1.14 1.10 1.00 0.88 0.82 0.79 0.77 0.78 0.83 0.86 0.83 0.79 0.81 0.87 0.97 1.16 1.28 1.29
0.14 0.11 0.13 0.17 0.16 0.22 0.37 0.54 0.38 0.37 0.40 0.38 0.38 0.42 0.42 0.41 0.37 0.34 0.35 0.45 0.50 0.57 0.62 0.66 0.71 0.80 0.94 1.07 1.23 1.28 1.20 1.15 1.06 0.92 0.83 0.79 0.77 0.76 0.76 0.77 0.75 0.70 0.70 0.76 0.81 0.92 1.02 1.10 1.12

GEFSSGP_prec_meanprecacc_168.txt.gz
Total_Precipitation_Accumulation
0.02 0.05 0.23 0.43 0.80 1.53 1.50 0.92 0.43 0.24 0.23 0.29 0.36 0.41 0.42 0.39 0.52 0.90 0.43 0.19 0.08 0.04 0.04 0.09 0.12 0.12 0.14 0.18 0.19 0.22 0.22 0.19 0.16 0.16 0.17 0.21 0.20 0.18 0.18 0.23 0.23 0.21 0.24 0.22 0.22 0.22 0.22 0.24 0.23
0.02 0.09 0.27 0.47 1.13 1.70 1.25 1.06 0.36 0.20 0.19 0.30 0.36 0.40 0.40 0.40 0.25 0.27 0.29 0.23 0.13 0.08 0.04 0.04 0.10 0.13 0.13 0.16 0.20 0.22 0.20 0.18 0.16 0.20 0.20 0.20 0.17 0.17 0.17 0.19 0.21 0.22 0.22 0.21 0.19 0.17 0.17 0.19 0.20
0.04 0.14 0.28 0.46 0.88 1.05 0.69 0.55 0.23 0.17 0.21 0.29 0.35 0.36 0.38 0.46 0.29 0.26 0.27 0.20 0.15 0.08 0.06 0.06 0.09 0.11 0.13 0.15 0.18 0.21 0.20 0.17 0.18 0.24 0.25 0.24 0.18 0.20 0.21 0.21 0.19 0.19 0.19 0.17 0.16 0.15 0.14 0.17 0.20
0.05 0.13 0.25 0.38 0.43 0.50 0.41 0.28 0.17 0.15 0.20 0.27 0.31 0.32 0.42 0.38 0.25 0.32 0.35 0.34 0.18 0.11 0.07 0.10 0.11 0.12 0.13 0.14 0.17 0.22 0.25 0.21 0.22 0.23 0.25 0.26 0.24 0.27 0.26 0.19 0.19 0.20 0.20 0.17 0.15 0.15 0.15 0.17 0.21
0.07 0.16 0.26 0.28 0.26 0.35 0.35 0.25 0.19 0.13 0.14 0.23 0.35 0.49 0.53 0.39 0.27 0.41 0.42 0.43 0.26 0.15 0.09 0.11 0.15 0.14 0.13 0.13 0.16 0.18 0.22 0.24 0.26 0.26 0.24 0.23 0.22 0.25 0.26 0.20 0.18 0.18 0.18 0.16 0.16 0.17 0.21 0.23 0.25
0.09 0.15 0.17 0.17 0.18 0.26 0.25 0.18 0.17 0.16 0.21 0.24 0.37 0.61 0.67 0.52 0.37 0.39 0.48 0.40 0.35 0.26 0.17 0.17 0.20 0.18 0.17 0.16 0.17 0.18 0.19 0.20 0.20 0.21 0.21 0.19 0.19 0.25 0.30 0.28 0.21 0.18 0.16 0.17 0.18 0.19 0.23 0.26 0.27
0.05 0.07 0.07 0.09 0.12 0.18 0.20 0.15 0.15 0.13 0.16 0.24 0.32 0.65 0.84 0.87 0.63 0.50 0.59 0.61 0.61 0.43 0.27 0.25 0.24 0.22 0.23 0.28 0.24 0.23 0.22 0.22 0.24 0.25 0.24 0.23 0.23 0.24 0.27 0.32 0.29 0.22 0.23 0.24 0.23 0.22 0.23 0.25 0.27
0.02 0.02 0.03 0.05 0.06 0.11 0.13 0.14 0.12 0.14 0.15 0.21 0.30 0.52 0.84 0.79 0.54 0.59 0.88 0.92 1.02 0.82 0.56 0.41 0.32 0.31 0.27 0.25 0.28 0.29 0.29 0.28 0.27 0.27 0.26 0.27 0.27 0.28 0.31 0.31 0.35 0.33 0.37 0.38 0.33 0.30 0.30 0.30 0.30
0.01 0.02 0.03 0.02 0.02 0.05 0.07 0.09 0.10 0.11 0.14 0.26 0.38 0.54 0.70 0.60 0.54 0.64 1.15 1.19 1.17 0.99 0.78 0.63 0.49 0.41 0.36 0.29 0.31 0.39 0.40 0.39 0.36 0.41 0.38 0.40 0.50 0.51 0.57 0.53 0.60 0.60 0.59 0.60 0.55 0.55 0.56 0.53 0.44
0.01 0.01 0.01 0.01 0.01 0.02 0.04 0.08 0.10 0.11 0.23 0.57 0.80 0.81 0.80 0.70 0.76 0.94 1.25 1.11 1.15 1.16 0.98 0.85 0.68 0.53 0.46 0.45 0.56 0.71 0.62 0.61 0.64 0.77 0.77 0.89 1.07 1.04 0.71 0.74 0.99 1.10 1.16 1.13 1.08 1.07 0.91 0.78 0.72
0.00 0.01 0.00 0.00 0.01 0.01 0.02 0.06 0.10 0.14 0.46 0.89 1.09 0.96 0.92 0.99 1.05 1.27 1.56 1.58 1.46 1.54 1.33 1.11 0.94 0.77 0.68 0.81 0.74 0.82 0.95 1.03 1.05 1.10 1.11 1.24 1.20 1.02 0.86 0.95 1.21 1.46 1.54 1.44 1.62 1.66 1.30 1.36 1.57
0.00 0.00 0.00 0.00 0.00 0.01 0.02 0.03 0.09 0.21 0.45 0.64 0.79 0.95 1.07 1.21 1.46 1.66 1.69 1.85 1.80 1.76 1.64 1.58 1.35 1.17 1.22 1.17 0.92 0.88 0.92 1.01 1.14 1.38 1.35 1.42 1.58 1.49 1.41 1.44 1.49 1.63 1.84 2.06 2.05 2.19 2.03 1.95 1.84
0.00 0.00 0.00 0.00 0.01 0.02 0.03 0.05 0.15 0.30 0.41 0.51 0.82 1.15 1.40 1.42 1.71 1.96 2.01 2.26 2.07 1.94 1.89 1.86 1.81 1.65 1.70 1.50 1.30 1.15 1.24 1.25 1.31 1.43 1.54 1.51 1.72 1.87 1.86 1.79 1.75 1.69 1.79 1.96 2.12 2.18 2.49 2.59 2.24
0.00 0.00 0.00 0.01 0.01 0.03 0.06 0.10 0.21 0.35 0.51 0.68 0.89 1.18 1.47 1.71 1.91 1.99 2.31 2.53 2.51 2.34 2.35 2.16 2.10 2.10 2.05 1.94 1.90 1.81 1.61 1.61 1.58 1.53 1.53 1.57 1.77 1.98 2.08 1.96 1.92 1.79 1.77 1.94 2.12 2.29 2.72 2.71 2.54
0.00 0.01 0.03 0.03 0.04 0.06 0.09 0.24 0.36 0.48 0.59 0.72 0.91 1.08 1.39 1.88 2.11 2.13 2.36 2.51 2.48 2.77 2.78 2.76 2.70 2.82 2.74 2.55 2.41 2.22 2.01 1.86 1.83 1.86 1.87 1.78 1.81 1.95 1.95 1.79 1.72 1.76 1.90 2.05 2.12 2.27 2.55 2.28 2.26
0.01 0.08 0.10 0.11 0.09 0.09 0.14 0.41 0.48 0.52 0.60 0.79 0.98 1.14 1.40 1.73 2.04 2.16 2.43 2.62 2.71 3.01 3.13 3.26 3.29 3.26 3.10 3.04 2.94 2.70 2.46 2.24 2.08 2.00 2.03 1.89 1.83 1.83 1.95 1.77 1.64 1.95 2.05 2.12 2.32 2.43 2.43 2.36 2.32
0.04 0.06 0.08 0.11 0.09 0.08 0.13 0.35 0.45 0.58 0.79 1.00 1.17 1.26 1.36 1.64 1.93 2.20 2.55 2.90 3.20 3.47 3.68 3.80 3.82 3.67 3.41 3.38 3.31 3.14 2.93 2.56 2.24 2.08 2.00 1.87 1.82 1.90 2.13 2.06 2.11 2.28 2.32 2.31 2.22 2.48 2.46 2.36 2.31
0.03 0.05 0.07 0.10 0.09 0.09 0.19 0.40 0.47 0.61 0.86 0.97 1.24 1.36 1.45 1.56 1.99 2.39 2.61 3.02 3.49 3.94 4.30 4.11 4.01 4.13 3.98 3.78 3.58 3.26 2.80 2.42 2.27 2.19 2.01 1.93 1.93 2.02 2.31 2.14 2.10 2.24 2.35 2.35 2.32 2.29 2.30 2.11 2.07
0.03 0.06 0.09 0.12 0.10 0.12 0.23 0.49 0.69 0.80 1.01 1.05 1.10 1.25 1.36 1.49 1.80 2.18 2.47 3.02 3.61 3.95 4.34 4.50 4.46 4.29 4.02 3.59 3.22 2.95 2.72 2.56 2.31 2.15 2.05 1.96 1.88 1.96 2.23 2.11 2.18 2.16 2.14 2.15 2.20 2.22 2.06 1.72 1.90
0.04 0.07 0.09 0.14 0.13 0.17 0.32 0.54 0.79 0.81 0.90 0.94 0.87 0.95 1.13 1.48 1.72 2.20 2.44 2.65 3.13 3.64 4.08 4.35 4.48 4.30 3.89 3.43 3.12 2.93 2.89 2.56 2.24 2.19 2.17 2.00 2.03 2.01 2.03 2.09 2.05 2.06 2.11 2.04 2.00 2.07 1.89 1.56 1.68
0.06 0.07 0.09 0.10 0.12 0.24 0.35 0.72 0.97 0.86 0.83 0.87 0.87 0.94 1.11 1.57 2.01 2.23 2.35 2.48 2.73 3.16 3.46 3.56 3.69 3.63 3.40 3.35 3.21 3.05 3.00 2.64 2.46 2.44 2.40 2.23 2.20 2.14 2.12 2.07 1.93 1.80 1.70 1.68 1.74 1.80 1.77 1.59 1.52
0.08 0.06 0.05 0.07 0.14 0.33 0.37 0.82 1.25 1.07 0.91 0.95 1.02 0.99 1.28 1.61 1.63 1.71 1.96 2.24 2.47 2.70 3.03 3.27 3.30 3.22 3.08 3.09 2.97 2.76 2.51 2.39 2.48 2.67 2.60 2.33 2.11 1.94 1.73 1.60 1.60 1.56 1.51 1.48 1.35 1.42 1.49 1.41 1.30
0.06 0.05 0.06 0.09 0.15 0.31 0.39 0.60 1.09 1.12 1.16 1.04 1.01 1.12 1.35 1.37 1.32 1.35 1.55 1.87 1.99 2.27 2.54 2.83 3.08 3.14 3.02 2.98 2.82 2.74 2.56 2.48 2.47 2.40 2.29 2.08 1.85 1.60 1.33 1.24 1.27 1.26 1.24 1.21 1.15 1.18 1.13 1.11 1.11
0.05 0.06 0.12 0.18 0.31 0.65 0.50 0.51 0.93 1.09 0.99 0.88 0.94 0.98 1.12 1.11 1.15 1.27 1.40 1.65 1.75 1.86 1.96 2.13 2.39 2.62 2.69 2.67 2.58 2.48 2.34 2.25 2.15 1.94 1.75 1.59 1.45 1.25 1.02 0.93 0.99 1.03 1.10 1.07 1.02 1.03 0.98 1.03 1.15
0.06 0.09 0.39 0.74 0.97 1.02 0.55 0.59 1.04 0.89 0.71 0.72 0.85 0.86 0.81 0.81 0.87 1.08 1.18 1.26 1.38 1.47 1.50 1.63 1.86 2.15 2.22 2.16 2.14 2.12 2.02 1.95 1.82 1.71 1.56 1.38 1.21 1.00 0.92 0.88 0.93 0.97 1.02 0.94 0.92 0.90 0.97 1.08 1.17
0.08 0.09 0.34 0.62 0.74 0.81 0.66 1.00 1.44 0.95 0.73 0.77 0.78 0.74 0.70 0.68 0.64 0.76 0.96 1.11 1.15 1.18 1.25 1.39 1.63 1.79 1.83 1.73 1.79 1.84 1.78 1.75 1.62 1.62 1.42 1.22 1.08 0.99 1.03 0.95 0.88 0.84 0.86 0.81 0.88 0.85 0.89 1.00 1.09
0.09 0.08 0.14 0.28 0.36 0.59 0.82 1.10 1.14 0.69 0.61 0.70 0.71 0.68 0.70 0.69 0.62 0.60 0.68 0.83 0.90 0.93 1.01 1.11 1.39 1.59 1.64 1.58 1.62 1.66 1.67 1.58 1.43 1.34 1.23 1.07 1.05 1.01 1.11 1.05 0.98 0.90 0.89 0.92 0.99 1.02 1.08 1.22 1.25
0.10 0.11 0.16 0.22 0.35 0.57 0.77 1.06 1.18 0.80 0.64 0.48 0.43 0.46 0.41 0.40 0.39 0.37 0.40 0.47 0.58 0.72 0.87 0.98 1.07 1.24 1.35 1.34 1.34 1.36 1.47 1.41 1.30 1.25 1.13 0.96 0.90 0.91 1.04 1.09 1.03 0.98 0.94 0.97 1.07 1.19 1.35 1.45 1.46
0.13 0.11 0.13 0.17 0.20 0.38 0.76 0.97 0.72 0.57 0.51 0.46 0.41 0.44 0.37 0.30 0.29 0.30 0.35 0.42 0.52 0.59 0.73 0.88 0.93 1.03 1.12 1.14 1.18 1.20 1.19 1.23 1.21 1.11 0.99 0.94 0.92 0.89 0.89 0.94 0.99 0.97 0.93 0.95 1.03 1.08 1.28 1.38 1.39
0.14 0.11 0.13 0.17 0.17 0.23 0.42 0.61 0.44 0.42 0.44 0.39 0.39 0.42 0.42 0.41 0.37 0.34 0.36 0.45 0.52 0.59 0.67 0.72 0.77 0.86 0.99 1.13 1.29 1.36 1.30 1.24 1.16 1.02 0.94 0.94 0.93 0.90 0.89 0.89 0.88 0.83 0.82 0.89 0.95 1.04 1.15 1.22 1.23

GEFSSGP_prec_meanprecacc_174.txt.gz
Total_Precipitation_Accumulation
0.02 0.06 0.26 0.48 0.87 1.63 1.57 0.95 0.45 0.26 0.24 0.30 0.37 0.42 0.43 0.40 0.54 0.92 0.45 0.20 0.08 0.04 0.04 0.09 0.14 0.13 0.15 0.19 0.20 0.22 0.23 0.20 0.20 0.24 0.30 0.36 0.30 0.25 0.24 0.26 0.25 0.24 0.27 0.25 0.25 0.24 0.23 0.26 0.25
0.02 0.12 0.31 0.52 1.23 1.77 1.29 1.08 0.38 0.22 0.20 0.30 0.37 0.41 0.40 0.40 0.25 0.27 0.30 0.24 0.13 0.08 0.04 0.05 0.11 0.14 0.13 0.17 0.21 0.23 0.20 0.19 0.21 0.28 0.29 0.27 0.21 0.21 0.20 0.22 0.24 0.26 0.25 0.22 0.21 0.20 0.18 0.20 0.21
0.06 0.17 0.36 0.53 0.94 1.08 0.71 0.56 0.25 0.20 0.24 0.29 0.36 0.37 0.39 0.46 0.29 0.26 0.27 0.21 0.15 0.08 0.06 0.07 0.10 0.11 0.13 0.15 0.19 0.21 0.20 0.18 0.20 0.26 0.27 0.25 0.20 0.22 0.23 0.23 0.23 0.24 0.21 0.18 0.18 0.18 0.17 0.19 0.23
0.07 0.17 0.29 0.43 0.47 0.52 0.44 0.30 0.18 0.16 0.21 0.28 0.32 0.32 0.42 0.38 0.25 0.32 0.35 0.34 0.18 0.11 0.07 0.10 0.12 0.12 0.13 0.15 0.17 0.22 0.25 0.22 0.22 0.24 0.26 0.27 0.24 0.28 0.27 0.21 0.21 0.23 0.22 0.19 0.18 0.18 0.18 0.19 0.23
0.08 0.22 0.31 0.33 0.29 0.37 0.37 0.28 0.20 0.14 0.15 0.28 0.38 0.50 0.54 0.39 0.28 0.41 0.43 0.43 0.26 0.15 0.09 0.12 0.15 0.14 0.13 0.13 0.16 0.18 0.22 0.24 0.27 0.27 0.24 0.24 0.23 0.26 0.28 0.22 0.19 0.20 0.19 0.18 0.19 0.20 0.23 0.24 0.27
0.10 0.22 0.23 0.21 0.21 0.28 0.27 0.20 0.17 0.17 0.22 0.27 0.39 0.62 0.68 0.53 0.38 0.39 0.48 0.41 0.35 0.26 0.17 0.18 0.21 0.18 0.17 0.16 0.17 0.18 0.19 0.20 0.21 0.22 0.22 0.20 0.20 0.26 0.32 0.29 0.22 0.19 0.17 0.18 0.19 0.20 0.24 0.27 0.29
0.09 0.14 0.12 0.11 0.14 0.21 0.22 0.16 0.16 0.14 0.18 0.28 0.35 0.67 0.84 0.88 0.64 0.51 0.60 0.62 0.61 0.43 0.27 0.25 0.24 0.22 0.24 0.28 0.24 0.23 0.23 0.24 0.25 0.25 0.25 0.24 0.24 0.25 0.28 0.33 0.29 0.23 0.24 0.25 0.24 0.22 0.24 0.27 0.30
0.03 0.05 0.06 0.07 0.07 0.14 0.16 0.15 0.13 0.15 0.18 0.25 0.33 0.53 0.85 0.79 0.55 0.61 0.91 0.94 1.03 0.82 0.56 0.41 0.32 0.31 0.27 0.26 0.29 0.30 0.29 0.29 0.28 0.28 0.26 0.28 0.29 0.29 0.32 0.32 0.35 0.34 0.37 0.39 0.34 0.32 0.32 0.32 0.32
0.02 0.03 0.04 0.03 0.04 0.07 0.09 0.11 0.11 0.12 0.16 0.31 0.42 0.55 0.70 0.60 0.54 0.65 1.17 1.22 1.18 1.00 0.78 0.63 0.49 0.41 0.36 0.29 0.31 0.39 0.40 0.39 0.37 0.41 0.39 0.41 0.51 0.52 0.58 0.53 0.61 0.60 0.60 0.61 0.57 0.57 0.57 0.54 0.45
0.02 0.01 0.01 0.01 0.02 0.04 0.06 0.11 0.11 0.13 0.27 0.65 0.87 0.85 0.81 0.70 0.77 0.94 1.26 1.12 1.15 1.17 0.98 0.85 0.68 0.53 0.46 0.45 0.56 0.71 0.62 0.62 0.65 0.77 0.77 0.90 1.08 1.05 0.71 0.76 1.02 1.12 1.18 1.14 1.10 1.10 0.92 0.79 0.74
0.02 0.02 0.00 0.01 0.01 0.02 0.04 0.09 0.12 0.16 0.51 0.95 1.22 1.03 0.93 0.99 1.05 1.27 1.57 1.59 1.47 1.54 1.33 1.11 0.94 0.77 0.68 0.81 0.74 0.83 0.95 1.04 1.06 1.11 1.12 1.25 1.21 1.03 0.86 0.97 1.23 1.49 1.56 1.45 1.63 1.68 1.31 1.38 1.60
0.01 0.02 0.01 0.00 0.01 0.02 0.04 0.06 0.11 0.23 0.48 0.68 0.83 0.98 1.08 1.22 1.47 1.66 1.69 1.85 1.80 1.76 1.64 1.59 1.35 1.18 1.23 1.17 0.92 0.88 0.92 1.01 1.15 1.39 1.36 1.43 1.59 1.50 1.42 1.45 1.49 1.64 1.84 2.07 2.06 2.21 2.07 1.99 1.89
0.01 0.02 0.01 0.00 0.01 0.02 0.03 0.06 0.16 0.31 0.42 0.52 0.84 1.18 1.41 1.43 1.72 1.97 2.02 2.26 2.07 1.94 1.89 1.87 1.82 1.65 1.71 1.51 1.31 1.16 1.25 1.26 1.31 1.43 1.55 1.52 1.72 1.87 1.87 1.80 1.76 1.70 1.80 1.97 2.14 2.20 2.53 2.63 2.28
0.00 0.01 0.01 0.01 0.01 0.03 0.07 0.11 0.21 0.36 0.52 0.69 0.92 1.19 1.48 1.73 1.93 2.00 2.32 2.54 2.51 2.34 2.35 2.17 2.10 2.10 2.07 1.96 1.91 1.83 1.63 1.62 1.59 1.55 1.54 1.58 1.78 1.99 2.09 1.97 1.94 1.82 1.79 1.96 2.14 2.31 2.75 2.75 2.59
0.00 0.01 0.03 0.03 0.04 0.06 0.09 0.24 0.38 0.51 0.60 0.73 0.93 1.09 1.42 1.91 2.17 2.17 2.38 2.52 2.48 2.78 2.78 2.76 2.71 2.83 2.75 2.56 2.42 2.24 2.07 1.89 1.85 1.89 1.90 1.81 1.84 1.97 1.97 1.81 1.75 1.79 1.96 2.11 2.14 2.29 2.57 2.31 2.30
0.01 0.08 0.10 0.11 0.09 0.09 0.14 0.42 0.52 0.62 0.63 0.82 1.02 1.18 1.48 1.76 2.08 2.22 2.45 2.63 2.71 3.02 3.14 3.26 3.30 3.27 3.11 3.05 2.95 2.72 2.51 2.32 2.13 2.05 2.09 1.93 1.86 1.87 1.99 1.80 1.68 1.98 2.08 2.16 2.34 2.44 2.45 2.39 2.38
0.04 0.06 0.08 0.11 0.09 0.08 0.14 0.36 0.46 0.62 0.83 1.03 1.20 1.30 1.40 1.66 1.97 2.32 2.58 2.91 3.21 3.48 3.69 3.82 3.83 3.68 3.42 3.39 3.33 3.17 2.98 2.64 2.30 2.12 2.03 1.90 1.86 1.93 2.16 2.10 2.15 2.31 2.35 2.34 2.24 2.49 2.47 2.38 2.35
0.03 0.05 0.07 0.10 0.09 0.09 0.19 0.41 0.47 0.64 0.90 0.99 1.26 1.41 1.49 1.58 2.02 2.44 2.63 3.05 3.52 3.98 4.34 4.15 4.02 4.15 4.00 3.80 3.60 3.29 2.85 2.47 2.33 2.25 2.05 1.95 1.96 2.05 2.35 2.18 2.14 2.28 2.39 2.38 2.34 2.32 2.33 2.13 2.10
0.03 0.06 0.09 0.12 0.10 0.12 0.23 0.49 0.69 0.82 1.08 1.08 1.12 1.28 1.42 1.55 1.84 2.21 2.49 3.07 3.67 4.01 4.40 4.53 4.48 4.32 4.05 3.62 3.26 3.00 2.75 2.59 2.35 2.18 2.08 1.97 1.89 1.98 2.26 2.14 2.21 2.19 2.18 2.18 2.22 2.24 2.09 1.76 1.95
0.04 0.07 0.09 0.14 0.13 0.17 0.33 0.54 0.80 0.82 0.92 0.99 0.91 0.97 1.15 1.52 1.76 2.24 2.48 2.69 3.18 3.69 4.13 4.40 4.51 4.34 3.94 3.48 3.19 3.01 2.93 2.59 2.28 2.22 2.20 2.02 2.05 2.05 2.06 2.12 2.08 2.08 2.14 2.06 2.03 2.11 1.92 1.59 1.71
0.06 0.07 0.09 0.10 0.12 0.24 0.35 0.73 0.98 0.87 0.84 0.89 0.90 0.97 1.14 1.60 2.03 2.26 2.39 2.52 2.77 3.20 3.49 3.59 3.72 3.66 3.44 3.40 3.29 3.12 3.06 2.68 2.50 2.48 2.44 2.26 2.24 2.18 2.15 2.09 1.97 1.84 1.73 1.70 1.76 1.83 1.80 1.62 1.55
0.08 0.06 0.05 0.07 0.14 0.34 0.38 0.83 1.25 1.08 0.93 1.00 1.08 1.05 1.32 1.65 1.67 1.76 2.03 2.31 2.52 2.75 3.07 3.30 3.33 3.25 3.12 3.14 3.05 2.85 2.61 2.47 2.52 2.71 2.65 2.39 2.17 1.98 1.77 1.64 1.64 1.61 1.55 1.51 1.38 1.44 1.51 1.43 1.32
0.06 0.05 0.06 0.09 0.16 0.32 0.40 0.61 1.10 1.13 1.17 1.08 1.10 1.23 1.44 1.42 1.40 1.47 1.66 1.95 2.06 2.35 2.61 2.88 3.12 3.18 3.07 3.04 2.91 2.85 2.67 2.59 2.56 2.48 2.37 2.15 1.92 1.66 1.40 1.31 1.33 1.32 1.30 1.25 1.19 1.22 1.15 1.12 1.12
0.05 0.06 0.12 0.18 0.31 0.65 0.52 0.52 0.94 1.11 1.00 0.92 0.98 1.03 1.22 1.22 1.23 1.39 1.53 1.73 1.82 1.95 2.08 2.21 2.44 2.67 2.75 2.75 2.68 2.60 2.46 2.37 2.26 2.07 1.87 1.67 1.53 1.31 1.10 1.01 1.07 1.13 1.18 1.13 1.07 1.08 1.02 1.05 1.16
0.06 0.09 0.39 0.74 0.98 1.03 0.56 0.60 1.04 0.90 0.72 0.73 0.88 0.90 0.85 0.90 0.95 1.15 1.25 1.34 1.45 1.53 1.58 1.69 1.91 2.20 2.28 2.23 2.22 2.22 2.15 2.07 1.94 1.85 1.69 1.48 1.29 1.06 0.99 0.94 0.99 1.04 1.10 1.01 0.98 0.97 1.01 1.11 1.20
0.08 0.09 0.34 0.62 0.75 0.82 0.67 1.01 1.45 0.97 0.74 0.78 0.81 0.78 0.73 0.73 0.71 0.84 1.02 1.20 1.26 1.27 1.33 1.44 1.69 1.86 1.90 1.81 1.87 1.93 1.89 1.88 1.76 1.78 1.58 1.34 1.19 1.10 1.12 1.04 0.96 0.92 0.94 0.90 0.99 0.94 0.94 1.05 1.13
0.09 0.08 0.14 0.28 0.37 0.59 0.83 1.12 1.17 0.72 0.63 0.72 0.73 0.71 0.74 0.73 0.69 0.72 0.77 0.91 0.97 0.99 1.06 1.16 1.46 1.66 1.71 1.67 1.70 1.74 1.76 1.69 1.54 1.46 1.36 1.18 1.16 1.13 1.24 1.18 1.10 1.02 1.00 1.03 1.10 1.12 1.15 1.27 1.30
0.10 0.11 0.16 0.22 0.35 0.57 0.79 1.09 1.24 0.86 0.70 0.52 0.46 0.49 0.45 0.46 0.49 0.52 0.50 0.55 0.67 0.81 0.96 1.07 1.17 1.35 1.49 1.48 1.47 1.46 1.57 1.51 1.39 1.36 1.23 1.04 0.97 0.99 1.13 1.18 1.14 1.09 1.06 1.10 1.20 1.28 1.43 1.54 1.54
0.13 0.11 0.13 0.17 0.20 0.38 0.79 1.02 0.82 0.68 0.57 0.52 0.47 0.50 0.42 0.35 0.35 0.40 0.45 0.50 0.63 0.74 0.85 0.97 1.02 1.14 1.26 1.29 1.32 1.31 1.28 1.32 1.31 1.21 1.07 1.02 1.00 0.96 0.96 1.02 1.08 1.09 1.10 1.14 1.20 1.24 1.45 1.55 1.53
0.14 0.11 0.13 0.17 0.17 0.24 0.43 0.64 0.51 0.57 0.57 0.50 0.48 0.55 0.56 0.50 0.43 0.43 0.50 0.54 0.64 0.73 0.78 0.81 0.85 0.95 1.09 1.23 1.40 1.46 1.39 1.34 1.25 1.10 1.02 1.02 1.01 0.99 1.00 1.04 1.05 0.98 0.96 1.06 1.10 1.16 1.31 1.38 1.36

GEFSSGP_prec_meanprecacc_180.txt.gz
Total_Precipitation_Accumulation
0.02 0.07 0.27 0.48 0.87 1.64 1.58 0.99 0.49 0.28 0.25 0.31 0.38 0.43 0.44 0.40 0.54 0.93 0.45 0.20 0.09 0.05 0.05 0.11 0.16 0.15 0.15 0.19 0.21 0.24 0.28 0.29 0.29 0.32 0.36 0.39 0.33 0.27 0.26 0.28 0.28 0.28 0.30 0.27 0.26 0.25 0.24 0.27 0.26
0.03 0.12 0.32 0.53 1.23 1.78 1.30 1.12 0.42 0.23 0.21 0.31 0.37 0.41 0.41 0.40 0.25 0.28 0.30 0.24 0.13 0.08 0.05 0.05 0.12 0.15 0.14 0.18 0.22 0.27 0.32 0.32 0.30 0.36 0.35 0.30 0.24 0.24 0.23 0.25 0.27 0.28 0.26 0.23 0.22 0.21 0.20 0.21 0.22
0.06 0.17 0.37 0.54 0.95 1.08 0.72 0.57 0.26 0.23 0.25 0.29 0.36 0.37 0.39 0.46 0.29 0.26 0.27 0.21 0.15 0.09 0.06 0.07 0.12 0.12 0.14 0.17 0.22 0.27 0.25 0.22 0.24 0.30 0.30 0.29 0.23 0.25 0.26 0.26 0.25 0.26 0.23 0.20 0.19 0.19 0.18 0.20 0.24
0.07 0.17 0.29 0.43 0.47 0.52 0.45 0.31 0.19 0.17 0.21 0.28 0.32 0.32 0.43 0.38 0.25 0.32 0.35 0.34 0.18 0.11 0.08 0.11 0.14 0.13 0.14 0.15 0.18 0.23 0.26 0.22 0.23 0.26 0.28 0.29 0.27 0.31 0.29 0.23 0.23 0.25 0.24 0.22 0.20 0.19 0.19 0.20 0.25
0.08 0.22 0.32 0.34 0.29 0.38 0.38 0.29 0.22 0.15 0.15 0.28 0.38 0.50 0.54 0.39 0.28 0.41 0.43 0.43 0.26 0.15 0.10 0.12 0.17 0.15 0.14 0.14 0.16 0.19 0.23 0.25 0.28 0.28 0.27 0.26 0.25 0.28 0.29 0.23 0.20 0.21 0.21 0.20 0.21 0.21 0.23 0.25 0.29
0.10 0.22 0.23 0.21 0.22 0.29 0.28 0.21 0.19 0.18 0.22 0.27 0.39 0.62 0.68 0.53 0.38 0.40 0.48 0.41 0.35 0.26 0.17 0.18 0.23 0.19 0.18 0.17 0.17 0.19 0.20 0.22 0.22 0.24 0.24 0.22 0.22 0.27 0.33 0.30 0.23 0.20 0.18 0.18 0.20 0.21 0.25 0.29 0.33
0.09 0.15 0.12 0.11 0.15 0.22 0.23 0.17 0.17 0.14 0.18 0.28 0.35 0.67 0.85 0.88 0.64 0.52 0.60 0.63 0.61 0.43 0.27 0.25 0.25 0.23 0.25 0.29 0.25 0.24 0.24 0.25 0.26 0.27 0.27 0.26 0.25 0.25 0.29 0.35 0.31 0.24 0.26 0.26 0.25 0.23 0.26 0.30 0.35
0.03 0.05 0.06 0.07 0.08 0.15 0.19 0.17 0.15 0.16 0.18 0.25 0.33 0.53 0.85 0.79 0.55 0.61 0.91 0.95 1.03 0.82 0.57 0.41 0.33 0.32 0.28 0.26 0.30 0.31 0.30 0.30 0.30 0.29 0.28 0.29 0.30 0.30 0.32 0.33 0.36 0.35 0.40 0.40 0.35 0.34 0.34 0.34 0.36
0.02 0.03 0.04 0.03 0.04 0.08 0.10 0.13 0.13 0.13 0.16 0.31 0.42 0.55 0.70 0.60 0.54 0.66 1.18 1.22 1.19 1.00 0.78 0.64 0.50 0.42 0.36 0.30 0.32 0.40 0.41 0.40 0.39 0.43 0.41 0.43 0.51 0.52 0.59 0.54 0.61 0.61 0.61 0.64 0.60 0.60 0.60 0.56 0.49
0.02 0.01 0.01 0.01 0.02 0.04 0.08 0.13 0.13 0.15 0.28 0.65 0.87 0.85 0.81 0.70 0.77 0.95 1.26 1.12 1.16 1.17 0.99 0.85 0.69 0.54 0.47 0.45 0.56 0.71 0.62 0.63 0.65 0.77 0.78 0.90 1.08 1.05 0.72 0.76 1.03 1.13 1.19 1.16 1.12 1.12 0.94 0.81 0.75
0.02 0.02 0.01 0.01 0.01 0.02 0.05 0.10 0.13 0.17 0.52 0.96 1.22 1.03 0.93 0.99 1.05 1.28 1.58 1.59 1.47 1.55 1.33 1.11 0.94 0.79 0.70 0.81 0.74 0.83 0.96 1.04 1.06 1.11 1.12 1.25 1.21 1.03 0.86 0.97 1.24 1.50 1.57 1.45 1.64 1.69 1.32 1.38 1.62
0.02 0.02 0.01 0.00 0.01 0.02 0.04 0.07 0.13 0.24 0.48 0.68 0.83 0.98 1.08 1.22 1.47 1.66 1.70 1.86 1.80 1.76 1.64 1.59 1.36 1.19 1.25 1.19 0.92 0.88 0.92 1.01 1.15 1.39 1.36 1.43 1.59 1.50 1.42 1.45 1.49 1.65 1.85 2.07 2.06 2.21 2.07 2.00 1.91
0.01 0.02 0.01 0.00 0.01 0.02 0.04 0.06 0.16 0.32 0.42 0.52 0.84 1.18 1.41 1.43 1.72 1.97 2.02 2.26 2.08 1.95 1.89 1.87 1.82 1.65 1.71 1.51 1.31 1.16 1.25 1.26 1.31 1.43 1.55 1.52 1.73 1.88 1.87 1.80 1.76 1.70 1.80 1.97 2.14 2.20 2.54 2.64 2.30
0.00 0.01 0.01 0.01 0.02 0.03 0.07 0.11 0.21 0.36 0.52 0.69 0.92 1.19 1.49 1.73 1.93 2.01 2.32 2.54 2.52 2.35 2.35 2.17 2.10 2.10 2.07 1.96 1.91 1.84 1.63 1.63 1.59 1.55 1.55 1.59 1.79 1.99 2.09 1.98 1.94 1.82 1.79 1.96 2.14 2.32 2.76 2.77 2.60
0.00 0.01 0.03 0.03 0.04 0.07 0.09 0.24 0.38 0.51 0.60 0.73 0.93 1.09 1.42 1.91 2.18 2.18 2.38 2.52 2.49 2.78 2.79 2.77 2.71 2.84 2.76 2.57 2.43 2.25 2.08 1.90 1.86 1.90 1.91 1.82 1.84 1.98 1.98 1.82 1.75 1.80 1.96 2.11 2.15 2.31 2.59 2.33 2.32
0.02 0.08 0.10 0.11 0.09 0.09 0.14 0.42 0.53 0.62 0.63 0.83 1.02 1.18 1.48 1.76 2.09 2.23 2.45 2.63 2.72 3.03 3.15 3.28 3.32 3.29 3.14 3.07 2.97 2.74 2.53 2.35 2.16 2.08 2.12 1.97 1.89 1.89 2.01 1.82 1.70 2.00 2.09 2.17 2.35 2.46 2.47 2.42 2.41
0.04 0.06 0.08 0.11 0.09 0.08 0.14 0.36 0.47 0.62 0.84 1.03 1.20 1.30 1.40 1.66 1.97 2.32 2.59 2.92 3.22 3.51 3.72 3.86 3.87 3.72 3.45 3.44 3.40 3.24 3.04 2.69 2.33 2.15 2.06 1.94 1.89 1.95 2.18 2.13 2.17 2.32 2.37 2.36 2.25 2.50 2.49 2.40 2.38
0.03 0.05 0.07 0.10 0.09 0.09 0.19 0.41 0.47 0.65 0.90 1.00 1.27 1.41 1.50 1.58 2.02 2.44 2.63 3.07 3.56 4.03 4.39 4.19 4.06 4.19 4.05 3.88 3.70 3.38 2.95 2.55 2.38 2.29 2.08 1.98 1.98 2.06 2.37 2.21 2.16 2.29 2.40 2.40 2.35 2.33 2.35 2.15 2.12
0.03 0.06 0.09 0.12 0.10 0.12 0.23 0.49 0.70 0.82 1.08 1.09 1.13 1.28 1.42 1.55 1.84 2.22 2.51 3.09 3.71 4.07 4.44 4.56 4.50 4.35 4.12 3.69 3.34 3.08 2.85 2.67 2.42 2.24 2.15 2.03 1.93 2.01 2.29 2.18 2.25 2.22 2.21 2.21 2.25 2.28 2.13 1.80 1.98
0.04 0.07 0.09 0.14 0.13 0.17 0.33 0.54 0.80 0.83 0.92 0.99 0.92 0.97 1.16 1.52 1.76 2.25 2.49 2.71 3.21 3.73 4.16 4.42 4.54 4.39 4.00 3.55 3.27 3.07 3.00 2.66 2.37 2.32 2.30 2.12 2.12 2.11 2.12 2.17 2.12 2.13 2.19 2.10 2.07 2.14 1.95 1.62 1.73
0.06 0.07 0.09 0.10 0.12 0.24 0.35 0.73 0.98 0.87 0.85 0.89 0.91 0.98 1.15 1.60 2.04 2.27 2.41 2.55 2.81 3.24 3.54 3.64 3.78 3.73 3.52 3.49 3.40 3.20 3.13 2.75 2.57 2.54 2.51 2.34 2.32 2.24 2.21 2.15 2.03 1.91 1.81 1.76 1.80 1.86 1.83 1.66 1.58
0.08 0.06 0.05 0.07 0.14 0.34 0.38 0.83 1.26 1.09 0.94 1.00 1.09 1.06 1.33 1.66 1.69 1.78 2.06 2.37 2.58 2.80 3.11 3.35 3.39 3.32 3.19 3.23 3.15 2.93 2.69 2.53 2.58 2.77 2.73 2.49 2.27 2.07 1.84 1.70 1.71 1.68 1.61 1.56 1.41 1.46 1.53 1.46 1.35
0.06 0.05 0.06 0.09 0.16 0.32 0.40 0.61 1.10 1.13 1.17 1.08 1.11 1.24 1.45 1.44 1.42 1.51 1.70 2.00 2.12 2.40 2.66 2.93 3.20 3.25 3.15 3.12 3.00 2.95 2.75 2.67 2.67 2.59 2.47 2.24 2.01 1.74 1.48 1.37 1.40 1.39 1.36 1.28 1.22 1.24 1.17 1.14 1.13
0.05 0.06 0.12 0.18 0.31 0.65 0.52 0.52 0.94 1.11 1.01 0.92 0.99 1.04 1.23 1.24 1.25 1.43 1.59 1.79 1.89 2.02 2.14 2.27 2.50 2.74 2.82 2.82 2.75 2.67 2.54 2.45 2.36 2.16 1.95 1.75 1.60 1.38 1.16 1.07 1.13 1.20 1.24 1.18 1.13 1.14 1.07 1.08 1.18
0.06 0.09 0.39 0.74 0.98 1.03 0.56 0.60 1.04 0.90 0.72 0.74 0.89 0.91 0.87 0.91 0.97 1.19 1.31 1.39 1.51 1.60 1.64 1.77 1.99 2.28 2.34 2.30 2.28 2.30 2.24 2.17 2.04 1.95 1.77 1.56 1.36 1.11 1.05 1.04 1.07 1.11 1.17 1.08 1.06 1.04 1.08 1.16 1.24
0.08 0.09 0.34 0.62 0.75 0.82 0.67 1.01 1.45 0.97 0.75 0.79 0.82 0.79 0.75 0.75 0.74 0.88 1.07 1.27 1.33 1.34 1.40 1.50 1.75 1.94 1.98 1.87 1.94 2.03 2.00 2.00 1.88 1.90 1.69 1.42 1.24 1.16 1.20 1.15 1.07 1.01 1.04 0.98 1.08 1.02 1.02 1.13 1.19
0.09 0.08 0.14 0.28 0.37 0.59 0.83 1.13 1.17 0.72 0.63 0.72 0.74 0.72 0.76 0.75 0.71 0.76 0.83 0.98 1.03 1.05 1.11 1.23 1.55 1.76 1.81 1.78 1.83 1.90 1.92 1.84 1.70 1.60 1.48 1.28 1.26 1.22 1.33 1.28 1.21 1.13 1.12 1.15 1.24 1.23 1.25 1.37 1.37
0.10 0.11 0.16 0.22 0.35 0.57 0.79 1.09 1.24 0.86 0.70 0.52 0.47 0.50 0.47 0.48 0.51 0.55 0.55 0.61 0.73 0.88 1.06 1.18 1.26 1.47 1.64 1.65 1.64 1.64 1.74 1.66 1.54 1.47 1.31 1.13 1.06 1.09 1.23 1.28 1.24 1.18 1.17 1.25 1.35 1.40 1.53 1.63 1.63
0.13 0.11 0.13 0.17 0.20 0.38 0.79 1.02 0.82 0.68 0.57 0.53 0.47 0.50 0.44 0.38 0.39 0.44 0.49 0.54 0.67 0.79 0.95 1.11 1.15 1.27 1.39 1.44 1.51 1.49 1.45 1.47 1.43 1.30 1.14 1.08 1.06 1.02 1.03 1.12 1.19 1.17 1.20 1.25 1.31 1.35 1.56 1.65 1.63
0.14 0.11 0.13 0.17 0.17 0.24 0.43 0.64 0.51 0.57 0.57 0.50 0.49 0.55 0.58 0.52 0.46 0.48 0.55 0.60 0.70 0.79 0.84 0.90 0.96 1.07 1.21 1.35 1.51 1.56 1.50 1.47 1.39 1.20 1.08 1.06 1.05 1.04 1.05 1.13 1.17 1.08 1.06 1.17 1.24 1.29 1.42 1.50 1.48

GEFSSGP_prec_meanprecacc_186.txt.gz
Total_Precipitation_Accumulation
0.02 0.07 0.27 0.48 0.87 1.64 1.58 0.99 0.49 0.28 0.25 0.31 0.38 0.43 0.44 0.41 0.55 0.93 0.45 0.20 0.09 0.06 0.08 0.15 0.20 0.17 0.17 0.24 0.27 0.31 0.36 0.36 0.35 0.38 0.40 0.45 0.39 0.32 0.31 0.33 0.32 0.31 0.34 0.30 0.28 0.27 0.28 0.31 0.30
0.03 0.12 0.32 0.53 1.23 1.78 1.31 1.12 0.42 0.23 0.21 0.31 0.37 0.41 0.42 0.41 0.25 0.28 0.30 0.25 0.14 0.09 0.08 0.09 0.16 0.18 0.17 0.23 0.31 0.43 0.45 0.42 0.39 0.43 0.41 0.36 0.30 0.29 0.28 0.29 0.31 0.32 0.29 0.26 0.24 0.23 0.23 0.24 0.24
0.06 0.17 0.37 0.54 0.95 1.08 0.72 0.57 0.26 0.23 0.25 0.29 0.36 0.37 0.39 0.47 0.29 0.26 0.28 0.21 0.16 0.10 0.08 0.10 0.15 0.16 0.18 0.25 0.33 0.37 0.33 0.31 0.33 0.37 0.36 0.34 0.29 0.31 0.31 0.30 0.29 0.29 0.26 0.24 0.22 0.22 0.21 0.22 0.26
0.07 0.17 0.29 0.43 0.47 0.52 0.45 0.31 0.19 0.17 0.21 0.28 0.32 0.33 0.43 0.38 0.25 0.32 0.36 0.34 0.18 0.11 0.08 0.12 0.16 0.17 0.16 0.19 0.22 0.28 0.32 0.28 0.29 0.31 0.33 0.34 0.33 0.36 0.32 0.25 0.26 0.27 0.27 0.25 0.23 0.22 0.21 0.22 0.27
0.08 0.22 0.32 0.34 0.29 0.38 0.38 0.29 0.22 0.15 0.15 0.28 0.38 0.50 0.54 0.39 0.28 0.41 0.43 0.43 0.26 0.15 0.10 0.13 0.19 0.18 0.17 0.18 0.21 0.24 0.28 0.30 0.32 0.32 0.31 0.32 0.31 0.33 0.32 0.25 0.22 0.24 0.25 0.24 0.24 0.23 0.25 0.28 0.32
0.10 0.22 0.23 0.21 0.22 0.29 0.28 0.21 0.19 0.18 0.22 0.27 0.39 0.63 0.69 0.53 0.38 0.40 0.48 0.41 0.35 0.27 0.18 0.19 0.25 0.22 0.22 0.22 0.22 0.23 0.24 0.25 0.25 0.28 0.30 0.29 0.26 0.31 0.35 0.32 0.24 0.22 0.21 0.22 0.23 0.23 0.27 0.33 0.37
0.09 0.15 0.12 0.11 0.15 0.22 0.23 0.17 0.17 0.14 0.18 0.28 0.35 0.67 0.85 0.88 0.64 0.52 0.60 0.63 0.62 0.44 0.28 0.26 0.28 0.26 0.28 0.33 0.28 0.27 0.26 0.27 0.29 0.30 0.32 0.30 0.29 0.29 0.31 0.38 0.34 0.27 0.29 0.29 0.28 0.26 0.29 0.34 0.39
0.03 0.05 0.06 0.07 0.08 0.15 0.19 0.17 0.15 0.16 0.18 0.25 0.33 0.53 0.85 0.79 0.55 0.61 0.92 0.95 1.03 0.83 0.57 0.42 0.34 0.35 0.31 0.30 0.32 0.33 0.34 0.33 0.33 0.33 0.32 0.33 0.34 0.33 0.36 0.36 0.39 0.37 0.42 0.44 0.40 0.39 0.39 0.39 0.40
0.02 0.03 0.04 0.03 0.04 0.08 0.10 0.13 0.13 0.13 0.16 0.31 0.42 0.55 0.70 0.60 0.55 0.66 1.19 1.23 1.19 1.01 0.79 0.65 0.52 0.44 0.39 0.34 0.35 0.44 0.45 0.43 0.42 0.47 0.44 0.48 0.57 0.56 0.62 0.56 0.63 0.63 0.63 0.67 0.65 0.66 0.67 0.63 0.53
0.02 0.01 0.01 0.01 0.02 0.04 0.08 0.13 0.13 0.15 0.28 0.65 0.87 0.85 0.81 0.71 0.77 0.95 1.27 1.12 1.16 1.17 0.99 0.86 0.71 0.58 0.49 0.47 0.59 0.76 0.66 0.66 0.70 0.83 0.83 0.96 1.13 1.10 0.73 0.78 1.06 1.15 1.21 1.18 1.16 1.16 0.98 0.84 0.79
0.02 0.02 0.01 0.01 0.01 0.02 0.05 0.10 0.13 0.17 0.52 0.96 1.22 1.03 0.93 1.00 1.05 1.28 1.58 1.59 1.47 1.55 1.34 1.13 0.97 0.81 0.73 0.85 0.78 0.87 0.99 1.07 1.10 1.14 1.15 1.29 1.23 1.05 0.88 0.99 1.27 1.53 1.60 1.48 1.66 1.71 1.34 1.41 1.66
0.02 0.02 0.01 0.00 0.01 0.02 0.04 0.07 0.13 0.24 0.48 0.68 0.83 0.98 1.08 1.22 1.47 1.66 1.70 1.86 1.80 1.76 1.65 1.60 1.36 1.20 1.26 1.21 0.95 0.90 0.94 1.03 1.17 1.41 1.38 1.45 1.62 1.52 1.44 1.48 1.53 1.68 1.87 2.10 2.09 2.24 2.10 2.02 1.92
0.01 0.02 0.01 0.00 0.01 0.02 0.04 0.06 0.16 0.32 0.42 0.52 0.84 1.18 1.41 1.43 1.72 1.97 2.02 2.26 2.08 1.95 1.90 1.87 1.82 1.65 1.71 1.52 1.33 1.17 1.27 1.27 1.32 1.45 1.56 1.53 1.74 1.89 1.88 1.81 1.78 1.72 1.82 1.99 2.16 2.22 2.56 2.67 2.31
0.00 0.01 0.01 0.01 0.02 0.03 0.07 0.11 0.21 0.36 0.52 0.69 0.92 1.19 1.49 1.73 1.93 2.01 2.33 2.54 2.52 2.35 2.36 2.18 2.11 2.10 2.07 1.97 1.92 1.85 1.65 1.64 1.60 1.56 1.56 1.60 1.80 2.01 2.10 1.99 1.96 1.84 1.81 1.97 2.15 2.33 2.79 2.80 2.63
0.00 0.01 0.03 0.03 0.04 0.07 0.09 0.24 0.38 0.51 0.60 0.73 0.93 1.09 1.42 1.91 2.18 2.18 2.38 2.53 2.49 2.78 2.79 2.78 2.72 2.85 2.77 2.57 2.43 2.26 2.09 1.92 1.87 1.91 1.92 1.83 1.86 2.00 2.01 1.84 1.78 1.82 1.98 2.13 2.18 2.33 2.63 2.37 2.35
0.02 0.08 0.10 0.11 0.09 0.10 0.14 0.42 0.53 0.62 0.63 0.83 1.02 1.18 1.48 1.76 2.09 2.23 2.45 2.64 2.72 3.03 3.15 3.29 3.32 3.31 3.15 3.07 2.98 2.75 2.53 2.36 2.17 2.09 2.14 1.98 1.91 1.92 2.06 1.87 1.73 2.02 2.10 2.18 2.39 2.51 2.53 2.48 2.47
0.05 0.06 0.08 0.11 0.09 0.08 0.14 0.36 0.47 0.62 0.84 1.03 1.20 1.30 1.40 1.66 1.97 2.32 2.59 2.92 3.22 3.51 3.73 3.86 3.88 3.73 3.46 3.44 3.41 3.25 3.06 2.70 2.36 2.18 2.09 1.95 1.91 1.99 2.24 2.18 2.23 2.35 2.39 2.39 2.28 2.54 2.55 2.47 2.47
0.03 0.06 0.07 0.10 0.09 0.09 0.19 0.41 0.47 0.65 0.90 1.00 1.27 1.41 1.50 1.58 2.02 2.44 2.63 3.07 3.56 4.03 4.39 4.20 4.07 4.21 4.07 3.89 3.72 3.41 2.98 2.58 2.41 2.32 2.12 2.00 2.02 2.10 2.43 2.27 2.23 2.33 2.44 2.45 2.40 2.39 2.42 2.23 2.21
0.03 0.06 0.09 0.12 0.10 0.12 0.23 0.49 0.70 0.82 1.08 1.09 1.13 1.28 1.42 1.55 1.84 2.22 2.51 3.09 3.71 4.08 4.45 4.58 4.54 4.38 4.15 3.72 3.37 3.11 2.88 2.71 2.46 2.28 2.19 2.06 1.97 2.05 2.35 2.23 2.31 2.28 2.26 2.28 2.31 2.32 2.19 1.86 2.05
0.04 0.07 0.09 0.14 0.13 0.17 0.33 0.54 0.80 0.83 0.92 0.99 0.92 0.97 1.16 1.52 1.76 2.25 2.50 2.71 3.22 3.74 4.18 4.45 4.58 4.42 4.04 3.59 3.31 3.12 3.06 2.71 2.41 2.37 2.35 2.16 2.17 2.16 2.16 2.21 2.18 2.20 2.27 2.19 2.15 2.21 2.01 1.68 1.81
0.06 0.07 0.09 0.10 0.12 0.24 0.35 0.73 0.98 0.87 0.85 0.89 0.91 0.98 1.15 1.61 2.04 2.28 2.42 2.56 2.82 3.26 3.57 3.67 3.81 3.76 3.56 3.54 3.48 3.32 3.22 2.81 2.63 2.60 2.58 2.40 2.37 2.30 2.25 2.20 2.09 2.00 1.89 1.84 1.89 1.95 1.91 1.74 1.66
0.08 0.06 0.06 0.07 0.14 0.34 0.38 0.83 1.26 1.09 0.94 1.00 1.09 1.06 1.33 1.66 1.69 1.79 2.07 2.37 2.60 2.83 3.14 3.37 3.42 3.34 3.22 3.26 3.22 3.04 2.79 2.61 2.66 2.86 2.83 2.56 2.33 2.12 1.88 1.76 1.78 1.76 1.69 1.64 1.49 1.53 1.60 1.54 1.42
0.06 0.05 0.06 0.09 0.16 0.32 0.40 0.61 1.10 1.13 1.17 1.08 1.11 1.24 1.45 1.44 1.43 1.52 1.71 2.02 2.16 2.44 2.68 2.96 3.22 3.27 3.18 3.17 3.06 3.02 2.84 2.77 2.78 2.69 2.57 2.33 2.08 1.80 1.53 1.42 1.47 1.48 1.43 1.35 1.29 1.33 1.25 1.20 1.21
0.05 0.06 0.12 0.18 0.31 0.65 0.52 0.52 0.94 1.11 1.01 0.92 0.99 1.04 1.23 1.24 1.26 1.43 1.61 1.84 1.94 2.06 2.18 2.30 2.52 2.77 2.87 2.87 2.79 2.75 2.63 2.56 2.46 2.26 2.06 1.85 1.69 1.45 1.23 1.13 1.20 1.28 1.31 1.27 1.23 1.25 1.16 1.16 1.28
0.06 0.09 0.39 0.74 0.98 1.03 0.56 0.60 1.04 0.90 0.72 0.74 0.89 0.91 0.87 0.92 0.97 1.19 1.32 1.42 1.53 1.65 1.73 1.83 2.03 2.31 2.38 2.34 2.32 2.37 2.32 2.26 2.15 2.09 1.92 1.69 1.46 1.18 1.11 1.11 1.15 1.19 1.25 1.17 1.16 1.14 1.17 1.27 1.35
0.08 0.09 0.34 0.62 0.75 0.82 0.67 1.01 1.45 0.97 0.75 0.79 0.82 0.80 0.75 0.75 0.74 0.88 1.08 1.27 1.33 1.37 1.46 1.55 1.80 1.96 2.01 1.91 1.98 2.09 2.08 2.13 2.03 2.05 1.85 1.56 1.34 1.22 1.26 1.22 1.14 1.10 1.14 1.07 1.17 1.12 1.14 1.24 1.30
0.09 0.08 0.14 0.28 0.37 0.59 0.83 1.13 1.17 0.72 0.63 0.72 0.74 0.72 0.76 0.76 0.72 0.77 0.83 0.98 1.04 1.07 1.15 1.26 1.60 1.80 1.85 1.82 1.89 1.97 2.01 1.98 1.87 1.76 1.60 1.37 1.33 1.28 1.37 1.34 1.27 1.20 1.20 1.24 1.34 1.32 1.35 1.48 1.47
0.10 0.11 0.16 0.22 0.35 0.57 0.79 1.09 1.24 0.86 0.70 0.52 0.47 0.50 0.47 0.48 0.52 0.56 0.55 0.62 0.74 0.90 1.08 1.22 1.32 1.52 1.68 1.71 1.72 1.74 1.84 1.76 1.64 1.57 1.39 1.21 1.12 1.15 1.29 1.35 1.30 1.24 1.24 1.34 1.45 1.50 1.63 1.73 1.71
0.13 0.11 0.13 0.17 0.20 0.38 0.79 1.02 0.82 0.68 0.57 0.53 0.47 0.50 0.45 0.39 0.40 0.44 0.50 0.55 0.69 0.81 0.97 1.13 1.18 1.30 1.43 1.49 1.58 1.56 1.52 1.54 1.52 1.40 1.24 1.17 1.12 1.10 1.12 1.20 1.27 1.24 1.26 1.34 1.41 1.43 1.65 1.75 1.73
0.14 0.11 0.13 0.17 0.17 0.24 0.43 0.64 0.51 0.57 0.57 0.50 0.49 0.55 0.58 0.53 0.47 0.48 0.55 0.61 0.71 0.80 0.85 0.91 0.98 1.09 1.23 1.39 1.57 1.63 1.57 1.56 1.49 1.31 1.18 1.14 1.12 1.13 1.15 1.22 1.23 1.14 1.12 1.25 1.32 1.37 1.51 1.60 1.58

GEFSSGP_prec_meanprecacc_192.txt.gz
Total_Precipitation_Accumulation
0.02 0.07 0.27 0.48 0.89 1.66 1.58 0.99 0.49 0.28 0.25 0.31 0.38 0.43 0.45 0.42 0.60 0.98 0.47 0.22 0.11 0.07 0.08 0.17 0.23 0.20 0.21 0.31 0.34 0.37 0.42 0.41 0.39 0.41 0.44 0.50 0.44 0.37 0.34 0.37 0.36 0.35 0.37 0.34 0.32 0.31 0.30 0.33 0.33
0.03 0.12 0.32 0.54 1.24 1.78 1.31 1.12 0.43 0.23 0.21 0.31 0.37 0.41 0.42 0.41 0.25 0.28 0.30 0.25 0.16 0.10 0.08 0.10 0.17 0.20 0.22 0.31 0.37 0.51 0.52 0.50 0.45 0.47 0.45 0.42 0.36 0.33 0.31 0.33 0.36 0.38 0.33 0.30 0.27 0.26 0.25 0.27 0.27
0.06 0.18 0.37 0.54 0.95 1.08 0.72 0.57 0.26 0.23 0.25 0.29 0.36 0.37 0.39 0.47 0.29 0.27 0.28 0.22 0.17 0.11 0.09 0.10 0.16 0.18 0.27 0.34 0.40 0.46 0.41 0.39 0.40 0.43 0.42 0.41 0.35 0.35 0.35 0.34 0.34 0.35 0.32 0.27 0.24 0.24 0.23 0.24 0.27
0.07 0.18 0.29 0.43 0.47 0.52 0.45 0.31 0.19 0.17 0.21 0.28 0.32 0.33 0.43 0.38 0.25 0.32 0.36 0.35 0.19 0.12 0.10 0.13 0.18 0.21 0.26 0.27 0.29 0.36 0.39 0.36 0.37 0.39 0.42 0.40 0.38 0.40 0.36 0.28 0.28 0.30 0.32 0.29 0.25 0.24 0.23 0.24 0.29
0.09 0.22 0.32 0.34 0.29 0.38 0.38 0.29 0.22 0.15 0.15 0.28 0.38 0.50 0.55 0.40 0.28 0.41 0.43 0.43 0.27 0.16 0.12 0.15 0.22 0.25 0.26 0.24 0.27 0.29 0.33 0.36 0.40 0.40 0.39 0.38 0.36 0.37 0.35 0.28 0.25 0.28 0.29 0.27 0.26 0.25 0.27 0.30 0.33
0.10 0.22 0.24 0.21 0.22 0.29 0.28 0.21 0.19 0.18 0.22 0.27 0.39 0.63 0.69 0.54 0.38 0.40 0.48 0.41 0.35 0.27 0.19 0.22 0.30 0.29 0.27 0.27 0.28 0.29 0.30 0.32 0.33 0.34 0.35 0.33 0.30 0.34 0.38 0.35 0.28 0.26 0.28 0.25 0.25 0.24 0.29 0.35 0.39
0.10 0.15 0.13 0.12 0.15 0.22 0.23 0.17 0.17 0.15 0.18 0.28 0.35 0.67 0.85 0.89 0.64 0.52 0.60 0.63 0.62 0.44 0.29 0.29 0.33 0.34 0.36 0.41 0.36 0.35 0.34 0.34 0.35 0.37 0.37 0.34 0.31 0.31 0.34 0.40 0.37 0.32 0.34 0.31 0.30 0.28 0.31 0.36 0.41
0.04 0.06 0.06 0.08 0.08 0.16 0.19 0.17 0.15 0.16 0.18 0.25 0.33 0.54 0.85 0.79 0.55 0.61 0.92 0.95 1.03 0.83 0.58 0.43 0.37 0.41 0.40 0.38 0.41 0.43 0.42 0.39 0.38 0.39 0.36 0.37 0.38 0.37 0.40 0.39 0.42 0.43 0.45 0.47 0.43 0.41 0.40 0.40 0.41
0.03 0.04 0.05 0.03 0.04 0.08 0.10 0.13 0.13 0.13 0.16 0.31 0.42 0.55 0.70 0.60 0.55 0.66 1.19 1.23 1.19 1.01 0.80 0.66 0.54 0.47 0.44 0.39 0.40 0.51 0.52 0.49 0.48 0.53 0.49 0.56 0.70 0.64 0.69 0.60 0.67 0.66 0.67 0.70 0.68 0.69 0.70 0.65 0.54
0.02 0.02 0.02 0.01 0.02 0.04 0.08 0.13 0.13 0.15 0.30 0.65 0.87 0.85 0.81 0.71 0.77 0.95 1.27 1.12 1.16 1.18 1.00 0.87 0.72 0.59 0.51 0.50 0.63 0.86 0.74 0.74 0.81 0.92 0.94 1.12 1.30 1.26 0.82 0.84 1.10 1.17 1.24 1.20 1.18 1.18 1.00 0.87 0.82
0.02 0.02 0.01 0.01 0.01 0.03 0.05 0.10 0.13 0.17 0.53 0.96 1.23 1.03 0.93 1.00 1.05 1.28 1.58 1.59 1.47 1.55 1.34 1.13 0.98 0.82 0.74 0.88 0.81 0.93 1.07 1.16 1.19 1.23 1.24 1.40 1.32 1.13 0.96 1.06 1.33 1.58 1.64 1.52 1.69 1.74 1.40 1.46 1.69
0.02 0.02 0.01 0.00 0.01 0.02 0.04 0.07 0.13 0.24 0.49 0.68 0.84 0.98 1.08 1.22 1.47 1.67 1.70 1.86 1.81 1.77 1.65 1.60 1.37 1.21 1.30 1.24 0.98 0.93 0.97 1.08 1.24 1.48 1.43 1.52 1.70 1.60 1.54 1.58 1.64 1.78 1.97 2.21 2.16 2.31 2.14 2.05 1.93
0.01 0.02 0.01 0.00 0.01 0.02 0.04 0.06 0.16 0.32 0.42 0.52 0.84 1.18 1.41 1.43 1.72 1.97 2.02 2.27 2.09 1.95 1.90 1.89 1.84 1.67 1.74 1.57 1.36 1.19 1.30 1.31 1.36 1.49 1.62 1.58 1.79 1.95 1.95 1.90 1.87 1.80 1.89 2.05 2.22 2.26 2.60 2.70 2.33
0.00 0.01 0.01 0.01 0.02 0.03 0.07 0.11 0.21 0.36 0.52 0.69 0.92 1.19 1.49 1.73 1.93 2.01 2.33 2.54 2.52 2.35 2.36 2.18 2.12 2.12 2.10 2.01 1.96 1.88 1.66 1.68 1.62 1.59 1.59 1.62 1.83 2.06 2.17 2.05 2.02 1.90 1.86 2.02 2.19 2.36 2.82 2.84 2.66
0.00 0.01 0.03 0.03 0.04 0.07 0.09 0.24 0.39 0.52 0.60 0.73 0.93 1.09 1.42 1.91 2.18 2.18 2.38 2.53 2.49 2.79 2.79 2.78 2.74 2.87 2.79 2.60 2.46 2.27 2.09 1.93 1.90 1.94 1.95 1.85 1.87 2.04 2.06 1.91 1.83 1.86 2.00 2.15 2.20 2.35 2.65 2.41 2.39
0.02 0.08 0.10 0.11 0.09 0.10 0.14 0.43 0.54 0.62 0.64 0.83 1.02 1.18 1.48 1.76 2.09 2.23 2.45 2.64 2.73 3.04 3.16 3.30 3.33 3.32 3.16 3.10 3.00 2.76 2.54 2.37 2.20 2.11 2.16 2.00 1.92 1.95 2.09 1.91 1.76 2.05 2.12 2.20 2.41 2.54 2.56 2.52 2.52
0.05 0.06 0.08 0.11 0.09 0.08 0.14 0.39 0.48 0.63 0.84 1.03 1.20 1.30 1.40 1.66 1.97 2.32 2.59 2.92 3.22 3.51 3.73 3.87 3.89 3.74 3.47 3.45 3.42 3.27 3.08 2.73 2.38 2.20 2.11 1.98 1.93 2.01 2.26 2.23 2.28 2.38 2.41 2.40 2.29 2.59 2.60 2.51 2.51
0.03 0.06 0.07 0.11 0.10 0.09 0.19 0.43 0.50 0.65 0.91 1.00 1.27 1.41 1.50 1.58 2.02 2.44 2.63 3.07 3.56 4.04 4.40 4.21 4.09 4.23 4.10 3.92 3.75 3.45 3.01 2.60 2.43 2.34 2.15 2.04 2.04 2.12 2.45 2.31 2.27 2.35 2.47 2.48 2.43 2.44 2.47 2.27 2.24
0.04 0.06 0.09 0.12 0.10 0.12 0.23 0.50 0.74 0.84 1.11 1.10 1.13 1.28 1.42 1.55 1.84 2.22 2.51 3.09 3.71 4.09 4.46 4.59 4.55 4.40 4.18 3.75 3.41 3.16 2.93 2.76 2.50 2.32 2.22 2.09 1.99 2.09 2.38 2.28 2.37 2.32 2.31 2.32 2.34 2.37 2.25 1.92 2.11
0.04 0.07 0.10 0.14 0.13 0.17 0.33 0.54 0.82 0.85 0.93 1.01 0.94 0.98 1.16 1.52 1.76 2.25 2.50 2.71 3.22 3.75 4.19 4.47 4.59 4.45 4.06 3.62 3.35 3.19 3.13 2.78 2.49 2.43 2.43 2.23 2.24 2.22 2.20 2.26 2.23 2.26 2.35 2.25 2.20 2.27 2.09 1.75 1.87
0.06 0.07 0.10 0.10 0.12 0.24 0.35 0.73 0.99 0.88 0.86 0.90 0.92 0.98 1.15 1.61 2.04 2.28 2.42 2.56 2.82 3.27 3.58 3.70 3.84 3.78 3.59 3.57 3.52 3.40 3.34 2.91 2.72 2.69 2.66 2.47 2.44 2.36 2.31 2.25 2.13 2.07 1.95 1.92 1.97 2.01 1.99 1.83 1.73
0.08 0.06 0.06 0.07 0.14 0.34 0.38 0.83 1.26 1.09 0.94 1.01 1.09 1.06 1.34 1.66 1.69 1.79 2.07 2.38 2.61 2.84 3.15 3.38 3.43 3.36 3.24 3.30 3.28 3.13 2.92 2.73 2.78 2.98 2.92 2.63 2.40 2.18 1.95 1.81 1.84 1.83 1.76 1.73 1.55 1.61 1.69 1.62 1.50
0.06 0.05 0.06 0.09 0.16 0.32 0.40 0.61 1.11 1.14 1.18 1.09 1.11 1.24 1.46 1.45 1.43 1.52 1.72 2.03 2.16 2.44 2.69 2.96 3.22 3.28 3.19 3.20 3.12 3.09 2.94 2.88 2.89 2.80 2.69 2.42 2.17 1.87 1.59 1.49 1.56 1.57 1.51 1.42 1.36 1.44 1.35 1.28 1.27
0.05 0.06 0.12 0.18 0.31 0.65 0.52 0.52 0.96 1.12 1.01 0.93 1.00 1.05 1.23 1.24 1.26 1.43 1.61 1.84 1.94 2.06 2.18 2.30 2.53 2.78 2.90 2.89 2.84 2.83 2.74 2.70 2.60 2.39 2.20 1.97 1.78 1.53 1.31 1.21 1.32 1.40 1.41 1.37 1.31 1.34 1.24 1.24 1.36
0.06 0.09 0.39 0.74 0.98 1.03 0.56 0.60 1.05 0.92 0.73 0.74 0.90 0.92 0.87 0.92 0.97 1.19 1.32 1.42 1.54 1.65 1.73 1.84 2.05 2.36 2.44 2.39 2.39 2.47 2.44 2.41 2.29 2.21 2.05 1.83 1.56 1.27 1.20 1.21 1.26 1.30 1.36 1.28 1.27 1.24 1.27 1.38 1.44
0.08 0.09 0.34 0.62 0.75 0.82 0.67 1.01 1.45 0.97 0.75 0.79 0.82 0.80 0.75 0.75 0.74 0.88 1.08 1.28 1.34 1.37 1.46 1.57 1.81 1.99 2.05 1.95 2.06 2.20 2.19 2.25 2.15 2.18 1.99 1.68 1.42 1.29 1.34 1.31 1.23 1.20 1.24 1.16 1.29 1.24 1.26 1.37 1.41
0.09 0.08 0.14 0.28 0.37 0.59 0.83 1.13 1.17 0.72 0.63 0.72 0.74 0.72 0.76 0.76 0.72 0.77 0.83 0.98 1.04 1.07 1.15 1.27 1.61 1.82 1.88 1.85 1.95 2.03 2.08 2.07 1.98 1.89 1.73 1.48 1.42 1.35 1.47 1.44 1.38 1.30 1.31 1.37 1.51 1.48 1.51 1.65 1.62
0.10 0.11 0.16 0.22 0.35 0.58 0.79 1.09 1.24 0.86 0.70 0.52 0.47 0.50 0.47 0.48 0.52 0.56 0.55 0.62 0.74 0.90 1.08 1.23 1.34 1.54 1.71 1.74 1.77 1.79 1.90 1.84 1.74 1.68 1.51 1.32 1.22 1.25 1.41 1.47 1.44 1.39 1.40 1.50 1.63 1.66 1.79 1.88 1.85
0.13 0.11 0.13 0.17 0.21 0.40 0.79 1.02 0.82 0.68 0.57 0.53 0.47 0.50 0.45 0.39 0.40 0.44 0.50 0.55 0.69 0.81 0.97 1.14 1.19 1.33 1.46 1.53 1.63 1.63 1.60 1.63 1.64 1.52 1.34 1.27 1.25 1.24 1.29 1.38 1.45 1.42 1.43 1.52 1.59 1.58 1.80 1.90 1.88
0.14 0.11 0.13 0.17 0.17 0.24 0.43 0.64 0.51 0.57 0.57 0.50 0.50 0.56 0.58 0.53 0.47 0.48 0.57 0.62 0.71 0.80 0.85 0.92 1.00 1.11 1.26 1.43 1.62 1.70 1.66 1.67 1.62 1.45 1.29 1.24 1.26 1.30 1.33 1.41 1.43 1.32 1.30 1.43 1.48 1.52 1.66 1.74 1.73